User: anonymous   Login
Location: B?jaj?g
(11.7167°N, 92.6667°E)
Time: 17:13:15
(UTC+00:00)
Language:

Cosmos 1238 Rocket - Orbit

View from above orbital plane
View from above orbital plane
View from above satellite
View from above satellite

Ground track
Ground track

The orbit data is extracted from the following two-line orbital elements,

1 12139U 81003B   20333.81948049  .00002957  00000-0  13637-3 0  9998
2 12139  82.9469 179.7478 0462071  63.5464 301.2372 14.57660109 30399
Epoch (UTC): 28 November 2020 19:40:03
Eccentricity: 0.0462071
inclination: 82.9469°
perigee height: 373 km
apogee height: 1028 km
right ascension of ascending node: 179.7478°
argument of perigee: 63.5464°
revolutions per day: 14.57660109
mean anomaly at epoch: 301.2372°
orbit number at epoch: 3039

The dashed part of the orbit path shows where the satellite is in the earth's shadow,  

DLR